Wind_Speed
100 101 102 103 104 106 108 110 112 114 116 117 119 120 120 120 121 121 120 120 120 119 118 117 116 115 114 113 112 110 109 108 107 105 104 103 102 101 100 100 99 99 99 99 98 98 98 98 98 98 98 98 98 98 98 98 98 97 97 97 96 96 96 96 97 97 97 96 97 97 97 97 97 97 97 97 98 99 99 100 100 100 100 101 102 103
102 103 105 106 107 109 112 113 115 117 119 120 120 121 120 120 120 119 118 117 116 115 114 113 111 110 109 108 106 105 104 103 102 101 100 99 98 98 97 97 96 96 96 96 95 95 95 95 95 95 95 95 95 94 94 94 94 93 93 93 93 93 93 93 93 93 93 94 94 94 94 94 93 93 93 94 95 95 96 97 97 97 97 98 99 100
105 106 108 109 111 113 115 117 118 119 120 121 121 120 119 118 117 116 115 113 112 111 109 108 107 106 104 103 102 101 100 99 98 97 96 96 95 95 94 94 94 94 93 93 92 92 92 92 91 91 91 91 91 91 91 90 90 90 89 89 89 90 90 90 90 90 91 91 91 91 91 91 90 90 90 91 91 92 93 93 94 94 95 95 96 97
108 110 111 113 114 116 118 119 120 121 121 120 119 117 116 115 114 112 110 109 108 106 105 104 103 102 100 100 99 98 97 96 95 94 93 93 93 92 92 92 91 90 90 89 89 89 88 88 88 88 88 88 87 87 87 87 86 86 86 86 86 87 87 87 87 88 88 88 88 88 88 88 88 87 87 87 88 89 89 90 91 91 92 92 93 94
111 113 114 116 118 119 120 121 121 120 119 117 116 114 112 111 109 108 106 105 104 103 102 100 99 98 97 96 95 95 94 93 92 92 91 91 90 90 89 89 88 87 87 86 85 85 85 85 85 84 85 84 84 84 84 84 83 83 83 84 84 84 85 85 85 85 86 86 86 86 86 86 85 85 85 85 85 86 86 87 88 88 89 89 90 90
114 116 117 119 120 121 121 121 120 118 116 114 112 110 108 107 105 104 103 102 100 99 98 97 96 96 95 94 92 92 91 90 90 89 89 88 88 87 86 85 84 84 83 82 82 82 82 82 82 82 82 81 81 81 81 81 81 81 81 81 82 82 83 83 83 83 83 83 84 84 83 83 83 83 82 82 83 83 84 84 85 85 86 86 87 87
118 119 120 121 121 121 120 119 117 115 113 110 108 106 104 103 102 101 100 99 98 96 95 94 94 93 92 91 90 89 88 88 87 87 86 86 85 84 83 82 81 80 80 80 79 79 79 79 79 79 79 79 79 79 79 79 79 79 79 79 80 80 81 81 81 81 81 81 81 81 81 81 81 81 80 80 80 81 81 82 82 83 83 84 84 85
121 121 122 122 121 120 118 116 113 111 109 107 105 103 101 100 99 98 97 96 95 94 93 92 91 90 89 88 87 86 86 85 85 84 83 83 82 81 80 79 78 78 77 77 77 77 77 76 76 76 76 76 77 77 77 77 77 77 77 78 78 78 78 78 79 79 79 79 79 79 79 79 79 79 79 79 79 79 79 79 80 80 81 81 82 82
122 123 122 121 120 117 115 112 109 107 105 103 102 100 99 98 96 96 95 94 93 92 90 89 88 88 86 85 84 84 83 83 82 82 81 80 79 78 77 76 76 76 75 75 75 75 74 74 74 74 74 74 74 74 75 75 75 75 75 76 76 76 76 76 76 76 76 76 77 77 77 77 77 77 77 77 77 77 77 78 78 78 79 80 80 80
122 122 121 118 116 113 111 109 107 104 102 101 99 98 96 95 94 93 92 91 90 89 88 87 86 85 84 83 82 81 81 81 80 79 78 77 76 75 74 74 74 74 73 73 73 72 72 72 71 71 72 72 72 72 73 73 73 73 73 74 74 74 74 74 74 74 74 74 74 75 75 75 75 75 76 76 76 76 76 76 76 77 77 78 78 78
121 119 118 115 112 110 107 105 104 102 100 99 97 96 94 92 91 89 89 88 88 87 86 84 83 82 81 80 80 79 79 78 77 77 76 74 73 72 72 72 72 72 71 71 70 70 70 69 69 69 70 70 70 70 70 71 71 71 71 72 72 72 72 72 71 71 71 71 72 72 73 73 74 74 74 74 74 74 75 75 75 75 76 76 77 77
119 117 114 112 109 107 104 102 101 99 97 96 94 93 91 90 88 86 85 85 84 84 83 82 81 79 78 78 77 77 76 76 75 74 73 72 71 70 70 70 70 69 69 68 68 68 67 67 67 68 68 68 68 68 68 69 69 69 69 70 70 70 70 69 69 69 69 69 69 70 70 71 71 72 72 73 73 73 73 73 74 74 74 75 75 75
115 113 110 108 106 104 102 100 98 96 95 93 91 90 88 87 85 84 83 82 81 81 80 79 78 77 76 75 75 75 74 74 73 72 71 70 69 68 68 68 68 67 67 66 66 65 65 65 65 65 66 66 66 66 66 67 67 67 67 67 67 67 67 67 66 66 66 66 67 67 68 68 69 70 70 71 71 72 72 72 72 72 73 73 73 74
111 109 107 104 103 101 99 97 95 93 92 90 88 87 85 84 83 82 81 80 79 78 77 77 76 75 74 73 73 72 72 72 71 70 69 68 67 66 66 67 66 66 65 64 63 63 63 63 63 63 63 63 63 64 64 64 64 65 65 65 65 64 64 64 64 64 64 64 64 65 65 66 67 67 68 68 69 69 70 70 70 71 71 71 72 72
108 105 103 101 99 98 96 94 92 90 89 87 86 84 83 82 80 79 78 77 77 76 75 74 73 73 72 71 71 70 70 70 69 68 67 66 65 64 64 64 64 64 63 62 61 61 61 61 60 60 60 61 61 61 61 62 62 62 62 62 62 62 62 61 61 61 61 61 62 62 63 63 64 64 65 65 66 67 67 68 68 68 69 69 70 70
104 102 100 98 97 95 93 91 89 87 86 85 83 82 81 79 78 77 76 75 74 74 73 72 71 70 70 69 68 68 67 67 67 66 64 63 62 62 62 62 62 61 61 60 59 59 59 58 58 58 58 58 58 58 59 59 59 59 59 59 59 59 59 59 59 59 59 59 59 60 60 60 61 61 62 62 63 64 65 65 66 66 67 67 67 68
102 100 97 95 94 92 90 88 87 85 84 83 81 80 79 77 77 75 74 73 72 71 70 70 69 68 68 67 67 66 65 65 64 63 62 61 60 59 59 59 59 59 58 57 57 56 56 56 56 55 55 55 55 56 56 56 56 56 57 57 57 57 57 56 56 56 56 56 56 57 57 58 58 59 59 59 60 61 62 62 63 64 64 65 65 66
99 97 95 93 91 89 88 86 85 83 82 81 80 78 77 76 75 74 72 71 70 69 68 67 67 66 66 65 65 64 63 62 62 61 60 59 58 57 57 56 56 56 55 54 54 54 54 53 53 53 52 52 53 53 53 53 54 54 54 54 54 54 54 54 54 54 54 54 54 54 54 55 55 56 56 57 57 58 59 60 61 61 62 62 63 64
96 94 92 90 88 87 86 84 83 82 80 79 78 77 76 74 73 72 70 69 68 67 66 65 64 64 63 63 63 62 61 60 60 59 58 57 55 55 54 54 53 53 52 51 51 51 51 51 50 50 50 50 50 50 51 51 51 51 51 51 51 51 51 51 51 51 51 51 51 52 52 52 53 53 54 54 55 56 56 57 58 59 60 60 61 61
93 91 89 88 86 85 84 82 81 80 79 78 76 75 74 73 71 70 68 67 65 64 63 62 62 61 61 61 60 60 59 58 58 57 56 54 53 52 52 51 50 50 49 49 48 48 48 48 48 48 47 47 47 48 48 48 48 49 49 49 49 49 49 49 49 49 49 49 49 49 49 50 50 51 51 52 52 53 54 55 56 56 57 58 59 59
91 89 87 86 84 83 82 81 80 78 77 76 74 73 72 70 69 67 66 64 63 62 60 59 59 58 58 58 58 58 57 56 55 55 54 52 51 50 49 48 48 47 46 46 46 46 46 46 46 45 45 45 45 45 45 46 46 46 46 46 46 46 46 46 46 46 46 46 46 47 47 48 48 49 49 50 50 51 52 52 53 54 55 56 57 57
88 87 86 84 83 81 80 79 78 77 75 74 72 71 69 68 67 65 64 62 61 59 58 57 56 56 56 55 55 55 55 54 53 52 51 50 49 48 47 46 46 45 44 44 44 44 44 44 44 43 43 43 43 43 43 43 43 43 44 44 44 44 44 44 44 44 44 44 44 44 45 45 46 46 47 48 48 49 50 50 51 52 53 54 55 55
86 85 84 82 81 80 79 78 76 75 73 71 70 68 67 65 64 63 61 60 59 57 56 55 54 53 53 53 53 53 52 51 51 50 49 48 48 47 46 45 44 43 43 42 42 42 42 42 42 42 42 41 41 41 41 41 41 41 41 42 42 42 42 42 42 42 42 42 42 42 43 43 44 44 45 46 46 47 48 48 49 50 51 52 53 53
85 83 82 81 80 78 77 75 74 72 71 69 67 66 64 63 61 60 59 58 56 55 54 53 52 51 51 50 50 50 50 49 48 48 47 46 46 45 45 44 43 42 41 41 41 41 41 40 40 40 40 40 40 39 39 39 39 39 39 40 40 40 40 40 40 40 40 40 40 41 41 41 42 42 43 44 44 45 46 46 47 48 49 50 50 51
83 82 81 79 78 76 75 73 72 70 68 67 65 64 62 60 59 58 57 55 54 53 52 51 50 49 49 48 48 48 48 47 47 46 45 45 44 44 43 42 42 41 40 39 39 39 39 39 39 38 38 38 38 38 37 37 38 38 38 38 38 38 38 38 38 39 39 39 39 39 39 40 40 41 41 42 43 43 44 45 45 46 47 48 49 50
81 80 79 77 76 74 72 71 69 67 66 64 63 61 60 58 57 56 54 53 52 51 50 49 48 47 47 46 46 47 47 46 45 44 44 43 43 43 42 41 40 40 39 38 38 38 38 38 37 37 36 36 36 36 36 36 36 36 36 36 36 37 37 37 37 37 37 37 37 38 38 38 39 39 40 40 41 42 42 43 44 44 45 46 47 48
79 78 77 75 74 72 70 68 66 65 63 62 60 59 58 56 55 54 53 51 50 49 48 47 46 46 45 45 45 45 45 45 44 43 42 42 41 41 41 40 39 39 38 37 37 37 37 36 36 35 35 35 35 35 35 34 35 35 35 35 35 35 35 35 35 35 36 36 36 36 37 37 37 38 38 39 39 40 41 41 42 43 43 44 45 46
78 76 75 73 71 69 67 65 63 62 61 59 58 57 56 54 53 52 51 50 49 47 46 46 45 44 44 44 43 43 43 43 43 42 41 40 40 40 39 39 38 38 38 37 36 36 36 35 35 34 34 33 33 33 33 33 33 33 33 33 33 33 33 33 34 34 34 35 35 35 35 36 36 37 37 37 38 39 39 40 40 41 42 43 43 44
76 74 72 70 68 66 64 62 61 60 58 57 56 55 53 52 51 50 49 48 47 46 45 44 44 43 43 42 42 42 42 42 41 41 40 39 39 39 38 38 37 37 37 36 35 35 35 35 34 33 33 32 32 32 32 31 31 31 31 31 31 32 32 32 32 32 33 33 34 34 34 34 35 35 36 36 37 37 38 38 39 40 40 41 41 42
73 72 70 68 65 63 61 60 58 57 56 55 54 52 51 50 49 48 47 47 46 45 44 43 42 42 41 41 41 41 41 40 40 39 39 38 38 37 37 36 36 36 36 35 35 34 33 33 33 33 32 31 31 30 30 30 30 30 30 30 30 30 30 30 31 31 31 32 32 32 33 33 33 34 34 35 35 36 36 37 37 38 39 39 40 40
71 69 67 65 63 61 59 57 56 55 54 52 51 50 49 48 47 46 46 45 44 44 43 42 41 40 40 39 39 39 40 40 39 38 37 37 37 36 36 35 35 34 34 34 34 33 32 32 31 31 31 30 30 29 29 29 29 28 28 28 28 29 29 29 29 29 30 30 30 31 31 32 32 32 33 33 34 34 35 35 36 36 37 38 38 38
68 66 64 62 60 58 56 55 54 53 52 50 49 48 47 46 45 45 44 43 43 42 42 41 41 40 39 38 38 38 38 38 38 37 37 36 36 35 35 34 33 33 33 33 33 33 32 31 30 30 29 29 29 28 28 28 27 27 27 27 27 27 27 28 28 28 28 28 29 29 30 30 31 31 31 32 32 32 33 33 34 35 35 36 36 37
65 63 61 59 57 55 54 53 52 51 50 48 47 47 46 45 44 43 42 42 41 41 41 40 40 39 39 38 37 37 37 37 37 36 36 35 35 35 34 33 32 32 31 31 31 31 31 30 29 28 28 28 27 27 27 26 26 26 26 26 26 26 26 26 26 26 27 27 27 28 28 28 29 29 30 30 30 31 31 32 32 33 33 34 34 35
62 60 58 56 55 53 52 51 50 49 48 47 46 45 44 44 43 42 41 41 40 40 39 39 39 39 39 38 37 37 36 36 35 35 35 34 34 34 33 32 31 31 30 30 29 29 29 29 28 27 27 26 26 26 25 25 25 25 24 24 24 24 24 25 25 25 25 25 26 26 26 27 27 28 28 28 29 29 30 30 31 31 32 32 32 33
60 58 56 54 53 51 50 49 48 47 46 45 44 44 43 42 42 41 40 39 39 39 38 38 38 38 38 38 38 37 36 35 35 34 34 33 33 33 32 31 31 30 29 29 28 28 28 27 27 26 26 25 25 25 24 24 23 23 23 23 23 23 23 23 23 23 24 24 24 25 25 25 26 26 26 27 27 27 28 28 29 29 30 30 30 30
57 55 54 52 50 49 48 47 46 45 44 43 43 42 42 41 40 40 39 38 38 37 37 37 37 38 38 38 37 37 36 35 34 33 33 32 32 31 31 31 30 29 29 28 27 27 27 26 26 25 25 24 24 24 23 23 22 22 22 22 22 21 21 22 22 22 22 22 23 23 23 24 24 24 25 25 25 26 26 27 27 27 28 28 28 28
55 53 52 50 49 47 46 45 44 44 43 42 41 41 40 40 39 39 38 37 37 36 36 36 36 36 37 37 37 36 36 35 34 33 32 32 31 31 30 30 29 29 28 27 26 26 25 25 24 24 24 23 23 22 22 22 21 21 20 20 20 20 20 20 20 20 20 21 21 21 22 22 22 23 23 23 23 24 24 25 25 25 26 26 26 26
53 51 50 48 47 46 45 44 43 42 41 41 40 40 39 39 38 38 37 36 36 35 35 35 35 35 36 36 36 35 35 34 33 32 31 31 30 30 29 29 28 28 27 27 26 25 24 24 23 23 22 22 22 21 21 20 20 20 19 19 19 18 18 18 19 19 19 19 19 20 20 21 21 21 21 21 22 22 22 22 23 23 23 24 24 24
51 49 48 47 46 45 44 43 42 41 41 40 39 39 38 38 37 37 36 35 35 34 34 34 34 34 34 35 35 35 34 33 32 31 31 30 29 29 28 28 27 27 26 25 25 24 23 23 22 21 21 21 20 20 20 19 18 18 18 17 17 17 17 17 17 17 17 18 18 19 19 19 19 19 19 19 19 20 20 20 20 21 21 21 22 22
49 48 46 45 44 43 43 42 41 41 40 39 38 38 37 37 36 35 35 34 34 33 33 33 33 33 33 34 34 34 33 33 31 31 30 29 28 28 27 27 26 26 25 24 24 23 22 22 21 21 20 20 19 19 18 17 17 16 16 16 15 15 15 15 16 16 16 16 17 17 18 18 18 18 17 17 17 17 17 18 18 18 19 19 19 20
47 46 45 44 43 42 41 41 40 40 39 39 38 37 37 36 35 35 34 33 33 32 32 31 31 31 32 32 33 33 32 32 31 30 29 28 27 27 26 26 25 25 24 23 23 22 21 21 20 20 19 18 18 17 17 16 15 15 14 14 14 14 14 14 14 15 15 15 16 16 16 16 16 16 16 15 15 15 15 15 15 16 16 17 17 18
46 45 44 43 42 41 40 40 39 39 38 38 37 37 36 35 34 34 33 32 32 31 31 30 30 30 30 31 31 31 31 31 30 29 28 27 26 26 25 24 24 24 23 22 22 21 20 20 20 19 18 17 16 16 15 14 14 13 13 13 12 13 13 13 13 14 14 14 14 14 15 14 14 14 14 13 13 13 13 13 14 14 14 15 15 16
44 43 42 41 41 40 39 39 38 38 37 37 36 36 35 34 34 33 32 32 31 30 30 29 29 29 29 29 30 30 30 29 29 28 26 26 25 24 24 23 23 22 22 21 21 20 20 19 19 18 17 16 15 14 14 13 12 12 12 12 12 12 12 12 12 12 13 13 13 13 13 13 13 12 12 12 12 12 12 12 12 12 12 13 14 14
42 42 41 40 39 39 38 38 37 37 36 36 35 35 34 33 33 32 32 31 31 30 30 29 29 29 29 29 29 29 29 28 27 26 25 25 24 24 23 22 22 21 21 20 20 19 19 18 18 17 16 15 14 13 12 12 11 11 11 11 11 11 11 11 11 11 11 12 11 11 11 11 11 11 11 11 10 10 10 10 10 10 11 11 12 13
41 40 40 39 38 37 37 37 36 36 35 35 34 34 33 33 32 32 31 31 30 30 29 29 29 29 29 29 29 29 28 27 26 25 24 23 23 23 22 21 21 20 20 19 19 18 18 17 17 16 15 14 13 12 11 10 10 10 10 10 10 10 10 10 10 10 10 10 10 10 10 10 10 10 10 9 9 9 8 8 8 9 9 10 10 11
41 40 39 38 37 36 36 35 35 34 34 34 34 33 33 32 32 31 31 30 30 29 29 29 29 29 29 29 29 29 28 27 26 24 23 22 22 21 21 20 20 19 19 18 17 17 17 16 16 15 14 13 11 10 9 9 9 9 9 9 9 9 9 9 9 9 9 9 9 8 9 9 9 9 9 8 8 7 7 7 7 7 8 8 9 10
40 39 38 38 37 36 35 34 34 33 33 33 33 33 33 32 32 31 31 30 29 29 29 28 28 28 29 29 29 29 28 27 25 24 22 21 21 20 20 19 19 18 18 17 16 16 15 15 14 14 13 12 10 9 8 8 8 8 8 8 8 9 9 8 8 8 8 7 7 7 7 7 8 8 8 7 7 6 6 5 5 6 7 7 8 9
40 39 38 38 37 36 35 34 34 33 33 33 33 33 33 33 32 32 31 30 29 29 28 28 27 27 28 28 29 29 28 27 25 23 22 21 20 19 19 18 18 17 17 16 15 14 14 14 13 13 12 11 9 8 7 7 7 7 7 7 8 8 8 7 7 7 6 6 6 5 6 6 7 7 7 6 5 5 4 4 4 5 6 6 8 9
40 39 39 38 37 37 36 35 35 34 34 34 33 33 33 33 32 32 32 31 30 29 28 27 27 26 27 27 28 28 28 27 25 24 22 20 20 19 18 17 17 16 16 15 14 13 13 12 12 11 10 9 8 7 6 6 6 6 6 7 7 7 7 7 6 6 5 5 4 4 4 5 5 6 6 5 4 3 3 3 3 4 5 6 7 8
39 39 38 38 38 38 37 37 37 36 36 35 35 35 34 33 33 32 31 31 30 29 28 27 26 26 25 26 27 28 28 27 25 23 22 20 19 18 17 17 16 15 15 14 13 12 12 11 11 10 9 9 7 6 5 5 5 5 6 6 6 6 6 6 5 5 4 3 3 3 3 4 4 4 4 4 3 2 2 2 3 4 5 6 7 9
38 38 38 38 38 38 38 38 38 38 38 37 37 36 35 34 33 32 32 31 30 29 28 27 26 25 25 25 26 26 27 27 25 23 21 20 18 18 17 16 15 14 14 13 12 11 10 10 10 10 9 8 7 6 4 4 4 4 5 5 6 6 5 5 5 4 3 2 2 2 2 3 3 3 3 3 2 1 2 2 3 4 5 6 8 9
Wind_Direction
299 298 298 298 298 298 298 298 297 297 296 295 295 294 293 293 292 292 291 291 290 290 290 289 289 288 288 287 287 286 286 285 285 285 284 284 283 283 282 281 281 280 279 278 278 277 277 276 276 276 275 275 275 274 274 274 273 273 273 272 272 271 271 270 270 269 268 267 267 266 265 264 264 263 262 262 261 261 260 259 259 258 257 256 255 255
300 300 300 300 300 299 299 298 298 297 296 296 295 294 294 293 293 292 292 292 291 291 290 290 289 289 288 288 287 287 286 286 285 285 285 284 283 283 282 281 280 280 279 279 278 278 277 277 277 276 276 275 275 275 274 274 274 273 273 273 272 271 271 270 270 269 268 267 267 266 265 264 263 263 262 261 261 260 260 259 259 258 257 256 255 255
301 301 301 301 301 300 300 299 298 297 297 296 295 295 295 294 294 293 293 292 292 291 291 290 290 289 289 288 288 287 287 286 286 285 285 284 283 283 282 281 280 280 279 279 279 278 278 278 277 277 276 276 276 275 275 274 274 274 273 273 272 271 271 270 269 269 268 267 267 266 265 264 264 263 262 261 261 260 260 259 258 258 257 256 255 255
302 302 302 302 301 301 300 299 298 298 297 296 296 296 296 295 295 294 294 293 293 292 291 291 290 290 289 289 288 288 287 287 286 286 285 284 283 283 282 281 281 280 280 280 280 279 279 278 278 277 277 276 276 275 275 274 274 273 273 272 271 271 270 269 269 268 268 267 267 266 265 265 264 263 262 261 261 260 260 259 258 258 257 256 255 255
303 303 303 303 302 301 300 300 299 298 298 297 297 297 297 296 296 295 294 294 293 292 292 291 291 290 290 289 289 288 288 287 287 286 285 284 283 283 282 282 281 281 281 281 280 280 279 278 278 277 277 276 276 275 275 274 274 273 272 272 271 270 270 269 268 268 267 267 266 266 266 265 264 264 263 262 261 260 260 259 259 258 257 257 256 255
304 304 304 303 303 302 301 300 300 299 299 298 298 298 297 297 296 296 295 294 293 293 292 292 291 291 290 290 289 289 288 288 287 286 285 285 284 283 283 283 283 282 282 281 281 280 279 278 278 277 276 276 275 275 274 274 273 272 272 271 270 270 269 269 268 268 267 267 267 266 266 265 265 264 263 262 261 261 260 259 259 258 257 257 256 255
305 305 304 304 303 302 301 301 300 300 300 299 299 299 298 297 297 296 295 295 294 294 293 293 292 291 291 290 290 289 289 288 287 286 286 285 285 284 284 284 284 283 282 281 281 280 279 278 278 277 276 276 275 275 274 274 273 272 271 270 270 269 269 268 268 268 267 267 267 266 266 265 265 264 263 262 262 261 260 259 259 258 257 257 256 255
306 305 305 304 303 303 302 301 301 301 301 300 300 299 299 298 297 297 296 295 295 294 294 293 293 292 291 291 291 290 289 289 288 287 287 286 286 286 285 285 284 283 282 282 281 280 279 279 278 277 277 276 276 275 274 273 273 272 271 270 270 269 269 268 268 268 267 267 267 266 266 265 265 264 263 262 262 261 260 259 259 258 257 257 256 255
307 306 305 305 304 303 303 302 302 302 301 301 300 300 299 299 298 297 297 296 296 295 294 294 293 293 292 292 291 291 290 289 288 288 287 287 287 287 286 285 285 284 283 282 281 280 280 279 279 278 277 277 276 275 274 274 273 272 271 270 270 269 269 268 268 268 267 267 266 266 266 265 265 264 263 262 261 261 260 259 258 257 257 256 255 255
307 306 305 305 304 304 303 303 303 302 302 301 301 300 299 299 299 298 297 297 296 295 295 294 294 293 293 293 292 291 290 290 289 289 288 288 288 287 287 286 285 284 283 282 282 281 280 280 279 278 277 276 276 275 274 274 273 272 271 271 270 269 269 268 268 267 267 267 266 266 265 265 264 264 263 262 261 260 259 259 258 257 256 256 255 254
307 306 306 305 304 304 304 304 303 303 302 302 301 300 300 299 299 298 298 297 296 296 295 295 294 294 294 293 293 292 291 290 290 289 289 289 288 288 287 286 285 284 283 283 282 281 281 280 279 278 277 276 276 275 274 273 273 272 271 271 270 270 269 269 268 267 267 266 266 265 265 264 264 263 263 262 261 260 259 258 257 257 256 255 255 254
307 306 306 305 305 305 304 304 303 303 302 302 301 301 300 300 299 299 298 297 297 296 296 296 295 295 295 294 293 292 292 291 291 290 290 289 288 288 287 286 285 284 283 283 282 281 281 280 279 278 277 277 276 275 274 274 273 272 272 271 271 270 270 269 268 268 267 266 265 265 264 264 263 263 262 261 261 260 259 258 257 257 256 255 254 254
307 306 306 305 305 305 305 304 304 303 302 302 301 301 301 300 300 299 298 298 297 297 297 297 296 296 295 294 294 293 292 292 291 290 290 289 289 288 287 286 285 284 283 283 282 281 281 280 279 278 278 277 276 275 274 274 273 272 272 271 271 270 270 269 268 268 267 266 265 264 264 263 262 262 262 261 260 260 259 258 258 257 256 255 254 253
307 306 306 306 305 305 305 304 304 303 303 302 302 302 301 301 300 300 299 299 298 298 298 297 297 296 296 295 294 294 293 292 291 291 290 290 289 289 288 287 286 285 284 283 283 282 281 280 279 278 277 277 276 275 275 274 273 273 272 271 271 270 270 269 268 267 267 266 265 264 263 263 262 262 261 261 260 260 259 258 258 257 256 255 254 253
307 306 306 306 306 305 305 304 304 304 303 303 302 302 302 301 301 301 300 300 299 299 298 298 297 297 296 295 295 294 293 292 292 291 291 290 289 289 288 287 286 286 285 284 283 282 281 280 279 278 277 277 276 275 275 274 273 273 272 272 271 270 270 269 268 267 266 266 265 264 263 263 262 262 261 261 260 260 259 259 258 257 256 255 254 253
307 307 307 306 306 305 305 305 305 304 304 304 303 303 303 302 302 302 301 301 300 300 299 299 298 297 296 295 294 294 293 292 292 291 291 290 290 289 288 287 287 286 286 285 284 283 282 281 280 279 278 277 276 275 275 274 273 273 272 272 271 270 270 269 268 267 266 265 265 264 263 263 262 262 261 261 260 260 259 258 258 257 256 255 254 253
308 307 307 307 306 306 306 305 305 305 305 305 304 304 304 303 303 303 302 301 301 300 300 299 298 298 297 296 295 294 293 292 292 292 291 291 290 289 288 287 287 287 286 285 284 283 282 281 280 279 278 277 276 275 275 274 273 273 272 272 271 270 270 269 268 267 266 265 265 264 263 263 262 261 261 260 259 259 258 258 257 256 256 255 254 253
308 308 308 307 307 307 306 306 306 306 306 306 305 305 305 304 304 303 303 302 301 301 300 300 299 298 297 296 295 294 294 293 293 292 292 291 290 289 289 288 287 287 286 285 284 283 282 281 280 279 278 277 276 275 275 274 273 273 272 272 271 270 270 269 268 267 266 266 265 264 263 262 261 261 260 259 259 258 258 257 257 256 255 254 253 252
308 308 308 308 308 307 307 307 307 307 307 307 306 306 305 305 304 303 303 302 302 301 300 300 299 298 297 297 296 295 295 294 293 293 292 292 291 290 289 288 288 287 286 285 285 284 283 282 281 280 279 278 277 276 275 274 274 273 272 272 271 271 270 269 268 268 267 266 265 264 263 262 262 261 260 259 258 258 257 257 256 256 255 254 253 252
309 308 308 308 308 308 308 308 308 308 308 307 307 306 306 305 304 304 303 302 302 301 301 300 299 298 298 297 296 296 295 295 294 294 293 292 292 291 290 289 288 288 287 286 285 284 283 282 281 280 279 278 277 276 276 275 274 274 273 272 272 271 271 270 269 268 267 266 265 265 264 263 262 261 260 259 258 257 257 256 255 255 254 254 253 252
309 309 309 309 309 309 309 309 309 308 308 308 307 306 306 305 304 304 303 303 302 301 301 300 299 299 298 297 297 296 296 295 295 294 294 293 293 292 291 290 290 289 288 287 286 285 284 283 282 281 280 279 278 277 277 276 275 275 274 273 273 272 271 270 269 269 268 267 266 265 264 263 262 261 260 259 258 257 256 256 255 254 254 253 252 251
310 310 310 310 310 310 309 309 309 309 308 308 307 306 306 305 304 304 303 303 302 302 301 301 300 299 298 298 297 297 296 296 296 295 295 295 294 293 293 292 291 291 290 289 288 287 286 285 284 283 282 281 280 279 278 277 277 276 275 274 273 273 272 271 270 269 268 267 266 265 264 263 262 261 260 259 258 257 256 255 254 254 253 252 252 251
310 310 310 310 310 310 310 310 309 309 308 308 307 306 306 305 305 304 304 303 303 302 302 301 300 300 299 298 298 297 297 297 297 297 297 297 296 295 295 294 294 293 292 291 289 288 287 286 285 284 283 282 281 280 279 278 278 277 276 275 274 273 272 271 270 269 268 267 266 265 264 263 262 261 260 259 258 257 256 255 254 253 253 252 251 250
311 311 311 311 311 311 311 310 310 309 308 308 307 306 306 305 305 304 304 304 303 303 302 302 301 300 300 299 299 298 298 298 298 298 298 298 298 297 297 296 295 294 293 292 291 290 288 287 286 285 284 283 282 281 280 279 278 277 276 275 274 274 273 272 271 270 269 268 267 265 264 263 262 261 260 259 258 257 256 255 254 253 252 251 251 250
311 311 311 311 311 311 311 310 310 309 308 308 307 306 306 306 305 305 304 304 304 303 303 303 302 302 301 301 300 300 299 299 300 300 300 299 299 299 298 298 297 296 295 294 292 291 290 288 287 286 285 284 283 282 281 280 278 277 276 275 275 274 273 273 272 271 270 269 267 266 265 264 262 262 260 259 258 257 256 255 254 253 252 251 250 249
312 312 312 312 311 311 311 310 310 309 308 308 307 307 306 306 306 305 305 305 304 304 304 304 303 303 302 302 302 301 301 301 301 301 301 301 300 300 299 299 298 298 296 295 294 293 291 290 289 287 286 285 284 282 281 280 279 278 277 276 275 274 274 273 272 271 270 269 268 267 265 264 263 262 261 260 259 258 257 255 254 253 252 251 250 249
312 312 312 312 312 311 311 310 310 309 308 308 307 307 307 307 307 306 306 306 305 305 305 305 304 304 304 303 303 303 302 302 302 302 302 302 302 301 301 301 300 299 298 297 296 294 293 292 290 289 288 286 285 284 282 281 280 279 277 276 275 274 274 273 272 271 270 269 268 267 266 265 264 262 261 260 259 258 257 256 255 253 252 251 250 249
312 312 312 312 312 311 311 310 310 309 309 308 308 308 308 307 307 307 307 307 306 306 306 306 306 305 305 305 304 304 303 303 303 303 303 303 303 303 303 302 302 301 300 299 298 296 295 293 292 290 289 287 286 285 283 282 281 279 278 277 276 275 274 273 272 271 270 269 268 267 266 265 264 263 262 261 260 258 257 256 255 254 253 251 250 249
313 312 312 312 311 311 311 310 310 309 309 309 309 308 308 308 308 308 308 307 308 307 307 307 307 306 306 306 305 305 304 304 304 304 304 304 304 303 304 303 303 302 301 300 299 298 296 295 294 292 291 289 287 286 285 283 282 280 279 278 276 275 274 273 272 271 270 269 268 267 266 265 264 263 262 261 260 259 258 257 256 255 253 252 251 249
313 312 312 312 312 311 311 310 310 310 309 309 309 309 309 309 309 308 308 308 308 308 308 308 308 307 307 307 306 305 305 304 304 304 305 305 304 304 304 303 303 302 301 300 299 298 297 296 295 293 292 290 289 287 286 284 283 281 280 278 277 276 274 273 272 271 270 269 269 268 267 266 265 264 263 262 260 259 258 257 256 255 254 253 251 250
312 312 312 312 312 311 311 311 310 310 310 310 309 309 309 309 309 309 309 309 309 309 308 308 308 308 307 307 306 306 305 305 305 305 305 305 305 304 304 304 303 302 302 301 300 299 297 296 295 294 293 292 290 288 287 285 283 282 280 279 278 276 275 274 273 272 271 270 269 268 267 266 265 264 263 262 261 260 258 257 256 255 254 253 251 250
312 312 312 312 312 311 311 311 310 310 310 310 310 310 310 309 309 309 309 309 309 309 309 309 308 308 308 307 307 306 306 306 306 306 306 306 306 305 305 304 304 303 302 302 301 300 298 297 296 295 293 292 291 289 288 286 284 283 281 279 278 277 276 275 274 272 271 270 269 268 267 267 266 265 264 263 262 261 259 258 257 255 254 253 252 250
312 312 312 312 312 312 311 311 311 311 311 311 310 310 310 310 310 310 310 310 309 309 309 309 309 309 309 308 308 307 307 307 307 307 307 307 307 306 306 305 304 304 303 303 302 301 300 299 297 296 294 292 291 290 288 287 285 283 281 280 279 277 276 276 275 273 272 271 270 269 268 267 266 265 265 264 262 261 260 259 257 256 254 253 251 250
312 312 312 312 312 312 312 311 311 311 311 311 311 311 311 310 310 310 310 310 310 310 310 310 310 310 310 310 309 309 308 308 308 308 309 308 308 308 307 306 306 305 305 304 302 301 301 300 298 297 295 294 292 290 288 287 285 284 282 281 279 278 277 276 275 274 273 272 271 270 269 268 267 266 265 264 263 262 261 259 258 256 255 253 251 249
313 313 313 313 313 312 312 312 312 312 312 312 311 311 311 311 311 311 311 311 311 311 311 311 311 311 311 311 310 310 310 309 310 310 310 310 309 309 308 308 307 307 306 305 304 302 301 300 299 298 296 295 292 291 289 287 286 284 283 281 280 279 278 277 276 275 274 273 272 271 270 269 268 267 266 264 263 262 261 260 258 257 255 253 251 249
313 313 313 313 313 313 313 313 312 312 312 312 312 312 312 311 312 312 312 312 312 312 312 312 312 311 311 311 311 311 311 311 311 311 311 311 311 310 309 309 308 308 307 306 305 304 302 301 300 298 297 295 293 291 290 288 286 285 283 282 281 280 279 278 277 276 275 274 273 272 271 270 269 268 266 265 264 262 261 260 258 257 255 253 251 249
314 314 314 314 314 314 313 313 313 313 313 313 313 312 312 312 312 312 313 313 313 313 313 313 312 312 311 311 311 311 311 312 312 312 312 312 311 311 310 310 309 309 308 308 307 305 303 302 300 299 297 296 294 292 290 288 287 285 284 283 282 281 280 279 279 278 277 276 275 274 273 271 270 268 267 265 264 262 261 260 258 257 255 253 251 248
314 315 314 314 314 314 314 314 314 314 314 314 313 313 313 313 313 313 314 314 314 314 314 313 313 312 311 311 311 311 311 312 312 313 313 312 312 312 311 311 310 310 309 309 308 307 305 303 301 299 298 296 294 292 290 288 287 285 284 284 283 283 282 281 281 280 279 278 277 276 274 273 271 269 268 266 264 263 261 260 258 257 255 253 250 247
315 315 315 315 315 315 315 315 315 315 315 315 315 314 314 314 314 315 315 315 315 315 314 314 313 312 312 311 311 311 311 312 313 313 313 313 313 312 312 312 311 311 311 310 309 308 307 305 303 301 299 297 295 293 290 288 287 285 285 285 285 285 285 284 284 283 282 281 280 278 276 274 272 271 269 267 265 264 262 260 259 257 255 252 250 247
316 316 316 316 316 316 316 316 316 316 316 316 316 316 316 316 316 316 316 316 316 316 315 315 314 313 312 311 311 311 311 312 313 314 314 313 313 313 312 312 312 312 312 311 311 310 309 307 305 302 300 298 296 293 291 289 288 287 287 288 289 289 289 288 287 286 285 283 282 280 278 276 274 272 270 268 267 265 264 262 260 258 255 252 250 246
317 317 317 317 317 317 317 317 317 317 317 317 317 317 317 317 317 316 316 316 316 316 316 315 314 313 312 311 311 311 311 312 313 314 314 314 313 313 313 313 313 313 313 312 312 311 310 308 306 304 301 298 296 293 292 290 290 290 291 292 294 294 294 292 291 289 288 286 284 282 279 278 275 274 272 271 270 268 266 264 262 259 256 253 249 245
318 318 318 318 318 318 318 318 318 318 318 318 318 318 318 318 317 317 317 317 317 316 316 315 315 313 312 312 311 311 311 312 313 314 314 314 314 314 313 314 313 313 313 313 313 312 312 310 308 305 302 299 297 295 293 293 294 295 297 298 299 298 297 296 294 292 291 288 286 284 282 280 278 277 275 274 273 271 269 267 264 260 257 253 248 243
318 318 319 319 319 319 319 319 319 319 319 319 319 319 318 318 318 318 318 318 318 317 317 316 315 315 313 312 311 311 311 312 313 314 314 314 314 314 314 314 314 313 313 313 314 314 313 311 309 306 303 300 298 297 297 297 298 300 303 303 303 303 303 301 298 295 293 290 289 286 285 283 282 280 279 277 276 274 272 269 265 261 257 252 247 241
319 319 319 319 320 320 320 320 320 319 319 319 319 319 319 319 319 319 319 319 319 319 318 318 317 316 315 314 313 312 312 313 313 314 315 315 315 315 314 315 314 314 314 314 315 314 314 312 310 307 304 302 299 298 298 300 302 305 307 308 307 306 305 303 301 298 295 292 291 290 288 287 286 284 283 281 279 277 274 271 267 262 256 251 245 239
319 320 320 320 320 320 320 320 320 320 320 319 320 320 320 320 320 320 320 320 320 320 320 319 318 318 316 315 314 313 313 313 314 315 316 316 316 315 315 315 315 315 315 314 315 315 314 313 310 308 305 302 300 299 301 303 306 309 312 312 310 308 307 305 303 300 297 295 294 293 293 292 291 288 287 284 282 279 276 272 268 262 255 249 241 234
320 321 321 321 321 321 320 320 320 320 320 320 320 320 320 320 321 321 321 321 321 321 320 320 320 319 317 316 315 314 314 314 315 316 317 317 317 316 316 316 316 315 315 315 315 315 315 313 310 307 304 302 300 300 303 307 311 313 315 314 313 311 309 307 305 302 300 298 297 297 298 297 295 293 290 288 285 282 278 274 268 262 253 245 237 229
321 321 321 321 321 321 321 320 320 320 320 320 320 320 320 320 321 321 321 321 321 321 321 320 320 319 318 317 316 315 315 315 316 317 318 318 318 318 317 317 316 316 315 315 316 316 315 313 311 308 304 301 300 302 306 310 314 317 318 318 315 314 312 310 308 306 303 301 301 302 304 303 301 298 294 289 287 283 279 273 266 257 249 239 231 223
322 322 322 322 322 321 321 320 320 320 320 320 320 320 320 320 320 320 320 320 320 320 320 320 319 319 318 316 315 315 315 315 317 318 319 320 319 319 318 318 317 317 316 316 317 317 315 313 311 308 306 303 301 303 308 314 319 321 322 321 319 317 315 313 311 309 305 305 306 309 312 311 307 302 297 292 287 283 278 271 260 249 239 230 221 214
322 322 322 322 322 322 321 321 320 320 320 320 320 319 319 319 319 319 319 319 319 319 319 319 318 318 317 316 315 314 314 315 317 318 320 320 320 320 319 319 319 318 317 317 317 317 316 315 312 310 308 305 303 302 310 318 325 326 326 324 321 319 317 315 313 310 308 307 312 318 320 317 311 304 297 291 284 279 272 260 248 236 226 217 210 205
322 322 322 321 321 321 321 320 320 320 319 319 319 319 319 318 318 318 318 317 317 317 317 317 317 316 315 315 314 313 313 314 315 317 319 320 320 319 320 320 320 319 317 317 317 318 318 316 313 311 309 308 307 306 311 323 330 334 332 329 325 322 320 318 316 312 310 311 320 331 335 328 317 305 295 287 278 261 241 228 222 216 210 205 200 196
321 321 321 320 320 319 319 319 319 318 318 318 318 318 318 317 317 316 316 316 316 315 315 315 314 314 314 313 313 312 312 312 314 316 318 319 319 319 319 320 320 319 318 317 317 319 320 317 314 311 309 309 309 309 314 326 339 343 343 336 331 326 324 321 316 315 312 316 343 2 2 344 324 307 293 279 251 206 181 178 187 191 192 191 190 188
Height
10333 10329 10325 10322 10318 10314 10307 10302 10297 10292 10287 10280 10273 10267 10263 10259 10255 10249 10244 10240 10235 10231 10226 10222 10218 10215 10212 10208 10204 10200 10197 10194 10192 10190 10188 10185 10183 10181 10179 10177 10174 10172 10169 10167 10165 10163 10161 10160 10158 10157 10155 10153 10152 10151 10150 10149 10148 10148 10148 10148 10148 10148 10147 10147 10147 10147 10147 10148 10148 10150 10151 10152 10153 10155 10157 10158 10159 10160 10161 10162 10165 10167 10170 10173 10175 10177
10323 10319 10315 10311 10308 10303 10297 10290 10283 10278 10272 10266 10260 10255 10250 10245 10241 10236 10231 10227 10222 10218 10213 10209 10205 10202 10198 10195 10192 10188 10185 10182 10180 10178 10177 10174 10172 10169 10167 10164 10162 10159 10157 10155 10154 10152 10151 10150 10148 10147 10145 10144 10142 10141 10140 10140 10139 10138 10138 10138 10138 10137 10137 10136 10136 10136 10136 10136 10137 10137 10138 10140 10142 10144 10146 10147 10148 10149 10150 10151 10153 10156 10159 10161 10163 10165
10313 10308 10303 10298 10295 10291 10285 10277 10270 10264 10257 10252 10247 10242 10237 10232 10228 10223 10218 10213 10209 10205 10200 10197 10193 10189 10186 10183 10180 10177 10174 10172 10170 10168 10165 10163 10160 10157 10155 10152 10150 10148 10147 10145 10144 10143 10141 10140 10138 10137 10135 10134 10133 10132 10130 10130 10129 10129 10128 10128 10127 10126 10125 10125 10125 10125 10125 10125 10125 10126 10127 10128 10131 10133 10135 10137 10138 10138 10140 10141 10143 10145 10147 10150 10152 10153
10302 10298 10292 10287 10282 10276 10270 10263 10257 10250 10244 10238 10233 10229 10225 10220 10215 10210 10205 10201 10197 10192 10188 10184 10181 10178 10175 10172 10168 10166 10163 10161 10159 10157 10154 10152 10148 10146 10143 10142 10140 10138 10137 10136 10135 10133 10132 10130 10128 10127 10125 10124 10123 10122 10121 10120 10119 10119 10118 10117 10117 10115 10115 10115 10113 10113 10114 10115 10115 10116 10116 10118 10120 10122 10124 10125 10127 10128 10129 10130 10132 10133 10136 10138 10140 10143
10290 10286 10281 10275 10268 10261 10254 10248 10242 10236 10230 10225 10222 10217 10213 10207 10202 10197 10193 10188 10185 10180 10176 10173 10169 10167 10163 10160 10158 10156 10153 10151 10148 10145 10143 10140 10138 10135 10133 10132 10131 10130 10128 10128 10126 10125 10123 10121 10119 10117 10115 10114 10113 10112 10111 10110 10110 10109 10108 10107 10106 10105 10105 10105 10104 10103 10104 10105 10105 10106 10107 10108 10110 10112 10113 10115 10117 10118 10119 10120 10122 10123 10125 10127 10130 10132
10277 10272 10267 10262 10255 10248 10240 10233 10228 10223 10217 10213 10208 10205 10201 10195 10190 10185 10180 10177 10173 10169 10165 10162 10158 10155 10152 10150 10148 10146 10143 10140 10137 10135 10132 10129 10127 10126 10124 10123 10122 10122 10120 10118 10117 10115 10113 10111 10109 10108 10106 10105 10103 10103 10102 10101 10100 10099 10099 10098 10097 10096 10095 10095 10095 10095 10095 10095 10096 10096 10097 10098 10100 10102 10103 10105 10107 10108 10110 10111 10112 10113 10115 10117 10120 10122
10264 10258 10252 10246 10240 10233 10227 10220 10215 10210 10207 10201 10196 10192 10188 10184 10178 10173 10169 10165 10162 10158 10155 10152 10148 10145 10142 10140 10138 10136 10133 10130 10127 10124 10122 10120 10118 10117 10116 10115 10114 10112 10111 10109 10107 10105 10103 10102 10100 10098 10097 10096 10095 10093 10092 10092 10091 10090 10090 10088 10088 10087 10086 10086 10086 10086 10087 10087 10087 10087 10088 10089 10091 10092 10094 10095 10097 10098 10100 10102 10103 10104 10105 10108 10110 10112
10251 10245 10238 10231 10224 10218 10213 10207 10202 10198 10195 10191 10185 10180 10177 10172 10168 10163 10158 10154 10150 10148 10145 10142 10138 10135 10132 10130 10128 10126 10123 10120 10117 10114 10112 10111 10110 10108 10108 10107 10105 10103 10101 10099 10097 10095 10094 10093 10092 10090 10089 10088 10086 10085 10083 10083 10082 10081 10080 10080 10079 10078 10078 10078 10078 10078 10078 10078 10078 10079 10080 10080 10082 10083 10085 10086 10088 10089 10090 10092 10093 10095 10096 10098 10100 10102
10238 10232 10225 10218 10211 10205 10200 10195 10190 10187 10183 10179 10175 10170 10165 10162 10157 10153 10148 10143 10140 10137 10135 10132 10128 10125 10123 10122 10119 10117 10113 10110 10107 10105 10103 10102 10102 10100 10099 10097 10095 10093 10091 10089 10088 10087 10086 10085 10083 10082 10081 10079 10078 10076 10075 10074 10073 10072 10072 10071 10070 10070 10070 10071 10071 10071 10071 10071 10071 10071 10072 10072 10073 10074 10075 10077 10078 10080 10081 10082 10084 10085 10087 10088 10090 10092
10226 10219 10212 10205 10200 10195 10190 10185 10180 10175 10172 10168 10163 10159 10155 10152 10148 10145 10140 10134 10130 10127 10125 10122 10120 10117 10115 10112 10110 10107 10103 10100 10098 10097 10095 10095 10093 10092 10090 10088 10085 10083 10082 10080 10080 10078 10078 10077 10075 10074 10072 10070 10069 10068 10067 10065 10065 10063 10063 10063 10062 10062 10062 10063 10063 10063 10063 10063 10063 10063 10064 10064 10065 10065 10067 10068 10069 10070 10072 10073 10075 10076 10078 10079 10081 10083
10213 10206 10200 10194 10188 10184 10180 10175 10170 10166 10162 10157 10153 10149 10145 10142 10140 10137 10132 10126 10121 10117 10115 10113 10111 10109 10107 10104 10100 10097 10095 10092 10090 10088 10087 10087 10086 10084 10082 10079 10077 10075 10073 10072 10072 10070 10069 10068 10067 10065 10063 10062 10061 10060 10058 10057 10057 10055 10055 10055 10054 10054 10055 10055 10055 10056 10057 10057 10057 10056 10056 10056 10057 10057 10058 10058 10060 10061 10063 10064 10066 10067 10068 10070 10072 10074
10202 10195 10190 10184 10179 10174 10170 10165 10162 10157 10152 10148 10144 10140 10136 10132 10130 10128 10123 10118 10113 10110 10107 10103 10102 10100 10099 10095 10092 10088 10086 10083 10081 10080 10078 10078 10077 10075 10073 10071 10068 10067 10066 10065 10064 10063 10062 10060 10058 10057 10055 10054 10053 10052 10051 10050 10048 10048 10047 10047 10047 10047 10047 10048 10048 10048 10049 10049 10049 10048 10048 10048 10048 10049 10050 10050 10051 10053 10054 10055 10057 10058 10060 10062 10064 10066
10192 10186 10180 10175 10170 10165 10161 10157 10152 10148 10143 10139 10135 10132 10128 10124 10121 10118 10114 10110 10107 10103 10100 10097 10093 10092 10090 10087 10084 10080 10077 10075 10073 10072 10071 10070 10069 10067 10065 10062 10060 10059 10058 10058 10057 10055 10054 10052 10050 10049 10048 10047 10045 10044 10043 10042 10042 10041 10040 10040 10040 10040 10040 10040 10041 10041 10041 10041 10041 10041 10041 10041 10042 10042 10042 10042 10043 10045 10046 10047 10048 10050 10052 10055 10056 10058
10183 10177 10171 10167 10162 10157 10152 10148 10144 10139 10135 10130 10127 10123 10120 10116 10113 10109 10106 10102 10098 10095 10093 10089 10086 10083 10082 10079 10076 10073 10070 10067 10065 10064 10063 10063 10062 10060 10057 10053 10052 10051 10051 10050 10049 10047 10047 10045 10043 10042 10041 10040 10038 10037 10036 10035 10034 10034 10033 10033 10033 10033 10033 10033 10033 10033 10033 10034 10033 10033 10034 10034 10034 10035 10035 10035 10036 10037 10038 10039 10041 10043 10045 10047 10048 10050
10173 10167 10162 10158 10153 10148 10143 10139 10135 10131 10127 10122 10119 10116 10112 10108 10105 10101 10098 10094 10091 10088 10085 10082 10079 10076 10074 10072 10068 10065 10062 10060 10058 10057 10056 10055 10054 10052 10050 10046 10044 10043 10043 10043 10042 10040 10039 10038 10037 10035 10034 10033 10032 10030 10030 10028 10028 10027 10027 10027 10027 10027 10027 10027 10027 10027 10027 10027 10027 10027 10027 10027 10028 10028 10028 10029 10030 10030 10031 10032 10034 10035 10037 10038 10040 10042
10163 10158 10154 10150 10145 10139 10134 10130 10127 10123 10118 10114 10111 10108 10104 10100 10097 10093 10090 10087 10084 10081 10078 10075 10072 10068 10066 10064 10062 10059 10056 10053 10051 10050 10049 10048 10047 10045 10043 10040 10038 10037 10037 10036 10035 10033 10032 10031 10030 10029 10028 10027 10025 10025 10023 10022 10022 10021 10020 10020 10020 10020 10020 10020 10020 10020 10020 10020 10020 10020 10020 10021 10021 10022 10022 10022 10023 10023 10024 10025 10027 10028 10029 10030 10032 10034
10154 10149 10145 10141 10136 10130 10126 10122 10118 10115 10110 10106 10103 10100 10097 10093 10090 10086 10083 10080 10077 10074 10071 10068 10065 10062 10058 10056 10053 10052 10050 10047 10045 10043 10043 10042 10041 10039 10037 10034 10032 10031 10030 10030 10028 10027 10025 10024 10023 10022 10022 10020 10020 10018 10017 10017 10015 10015 10014 10014 10013 10013 10013 10013 10013 10013 10013 10013 10014 10014 10014 10015 10015 10015 10016 10016 10016 10017 10017 10018 10019 10020 10021 10023 10025 10027
10145 10140 10136 10132 10127 10122 10118 10114 10110 10107 10102 10098 10095 10092 10088 10085 10082 10079 10076 10073 10070 10067 10064 10062 10058 10055 10052 10048 10045 10043 10043 10041 10038 10037 10037 10036 10034 10033 10030 10028 10027 10025 10025 10023 10022 10020 10019 10018 10017 10017 10015 10015 10013 10012 10012 10010 10010 10009 10008 10008 10008 10007 10007 10007 10007 10007 10007 10007 10008 10008 10008 10008 10008 10008 10009 10009 10010 10010 10010 10011 10012 10013 10014 10015 10017 10018
10137 10132 10128 10124 10120 10115 10110 10107 10103 10099 10095 10092 10088 10084 10081 10078 10075 10073 10070 10067 10064 10062 10058 10055 10052 10049 10047 10043 10040 10037 10036 10035 10033 10031 10030 10030 10028 10027 10025 10023 10022 10020 10019 10018 10016 10014 10013 10012 10011 10011 10010 10009 10008 10007 10006 10005 10004 10003 10003 10002 10002 10002 10002 10002 10002 10002 10002 10002 10002 10002 10002 10002 10002 10003 10003 10003 10003 10004 10005 10005 10005 10007 10007 10008 10010 10012
10128 10123 10120 10117 10112 10108 10103 10099 10096 10092 10088 10085 10082 10078 10074 10071 10068 10065 10063 10060 10058 10055 10053 10050 10047 10043 10040 10037 10034 10032 10030 10028 10027 10025 10024 10023 10022 10021 10019 10018 10016 10015 10014 10012 10011 10009 10007 10006 10005 10005 10004 10003 10002 10001 10000 10000 9999 9998 9998 9997 9997 9997 9996 9996 9996 9996 9996 9996 9996 9996 9996 9996 9997 9997 9997 9997 9998 9998 9998 9999 10000 10000 10001 10002 10003 10005
10121 10116 10112 10109 10105 10101 10097 10092 10088 10085 10082 10078 10075 10072 10068 10065 10062 10059 10057 10054 10052 10050 10047 10045 10042 10038 10035 10032 10029 10026 10025 10023 10022 10020 10018 10018 10017 10015 10014 10012 10011 10010 10008 10007 10005 10004 10002 10001 10000 9999 9998 9998 9997 9996 9995 9995 9994 9993 9993 9992 9992 9991 9991 9990 9990 9990 9990 9990 9990 9990 9990 9990 9990 9991 9991 9992 9992 9992 9993 9993 9993 9995 9995 9996 9997 9998
10114 10109 10105 10102 10098 10094 10090 10086 10082 10079 10076 10073 10070 10065 10062 10059 10056 10053 10050 10048 10046 10044 10042 10039 10037 10033 10030 10027 10024 10022 10020 10018 10017 10015 10013 10012 10010 10009 10008 10007 10006 10005 10003 10002 10000 9998 9997 9996 9995 9994 9993 9992 9992 9991 9990 9990 9989 9988 9988 9987 9987 9986 9985 9985 9985 9985 9985 9985 9985 9985 9985 9985 9985 9985 9985 9985 9986 9987 9987 9987 9988 9988 9990 9990 9991 9992
10107 10103 10098 10095 10091 10087 10084 10080 10077 10073 10070 10067 10063 10060 10056 10053 10050 10047 10045 10042 10040 10038 10036 10034 10032 10028 10026 10023 10020 10017 10015 10013 10012 10010 10009 10007 10005 10004 10003 10002 10001 10000 9998 9997 9995 9993 9992 9992 9990 9989 9988 9988 9987 9986 9985 9985 9984 9983 9983 9982 9981 9980 9980 9980 9980 9980 9980 9980 9980 9980 9980 9980 9980 9980 9980 9980 9980 9981 9982 9982 9983 9983 9984 9985 9985 9987
10100 10096 10092 10088 10085 10082 10078 10075 10070 10067 10063 10060 10057 10053 10051 10048 10045 10043 10040 10037 10035 10032 10030 10028 10026 10023 10021 10018 10015 10013 10010 10008 10007 10006 10005 10002 10000 9999 9998 9997 9996 9995 9993 9992 9991 9989 9988 9987 9986 9985 9984 9983 9982 9982 9981 9980 9979 9978 9978 9977 9977 9976 9975 9975 9975 9975 9975 9975 9975 9975 9975 9975 9975 9975 9975 9975 9975 9976 9976 9977 9977 9978 9978 9980 9980 9981
10093 10089 10085 10082 10079 10075 10072 10068 10064 10060 10057 10053 10050 10048 10045 10043 10040 10037 10035 10032 10030 10028 10025 10023 10021 10018 10016 10014 10011 10008 10006 10005 10003 10002 10000 9998 9997 9995 9993 9993 9992 9990 9989 9988 9987 9985 9983 9982 9982 9981 9980 9978 9978 9977 9977 9975 9975 9974 9973 9973 9972 9972 9971 9970 9970 9970 9970 9970 9970 9970 9970 9970 9970 9970 9970 9970 9970 9970 9971 9972 9972 9973 9973 9974 9975 9976
10087 10083 10080 10077 10073 10070 10066 10062 10059 10055 10052 10048 10045 10042 10040 10037 10035 10032 10030 10027 10025 10023 10020 10018 10016 10014 10012 10010 10007 10004 10002 10000 9999 9998 9997 9995 9992 9990 9990 9988 9987 9986 9985 9983 9983 9981 9980 9978 9977 9977 9976 9975 9973 9973 9972 9972 9971 9970 9969 9968 9968 9968 9967 9967 9966 9966 9965 9965 9965 9965 9965 9965 9965 9965 9965 9965 9965 9965 9966 9967 9967 9967 9968 9969 9970 9970
10082 10078 10074 10070 10067 10064 10060 10057 10053 10050 10047 10043 10040 10037 10035 10032 10030 10027 10025 10023 10020 10018 10016 10014 10012 10009 10007 10005 10003 10000 9998 9996 9995 9993 9992 9991 9989 9987 9985 9985 9983 9982 9981 9980 9978 9977 9976 9974 9973 9973 9972 9971 9970 9969 9968 9968 9967 9966 9965 9965 9964 9964 9963 9963 9962 9962 9961 9961 9960 9960 9960 9960 9960 9960 9960 9960 9960 9961 9961 9962 9962 9962 9963 9963 9965 9965
10076 10072 10068 10065 10062 10058 10055 10052 10048 10045 10042 10038 10035 10033 10030 10028 10025 10022 10020 10018 10016 10014 10012 10010 10008 10005 10003 10001 9999 9997 9995 9993 9991 9989 9988 9987 9985 9983 9982 9981 9980 9978 9977 9976 9975 9973 9972 9970 9970 9969 9968 9967 9967 9965 9965 9964 9963 9963 9962 9962 9961 9960 9960 9959 9958 9958 9957 9957 9957 9956 9956 9956 9956 9956 9956 9956 9956 9957 9957 9957 9957 9958 9958 9959 9960 9960
10070 10067 10063 10060 10057 10053 10050 10047 10043 10040 10037 10034 10031 10028 10025 10023 10021 10018 10015 10013 10012 10010 10008 10006 10004 10002 10000 9998 9995 9993 9992 9990 9988 9986 9985 9983 9982 9980 9979 9978 9976 9975 9973 9972 9971 9970 9969 9967 9966 9965 9965 9964 9963 9962 9962 9960 9960 9959 9958 9958 9957 9957 9956 9955 9955 9954 9953 9953 9953 9952 9952 9952 9952 9952 9952 9952 9952 9952 9953 9953 9953 9953 9954 9955 9955 9957
10065 10062 10058 10055 10052 10048 10045 10042 10038 10035 10033 10030 10027 10024 10022 10019 10017 10014 10012 10010 10008 10006 10004 10002 10000 9998 9997 9995 9992 9990 9988 9987 9985 9983 9982 9980 9978 9977 9976 9975 9973 9972 9970 9968 9967 9967 9966 9965 9963 9962 9961 9960 9960 9959 9958 9957 9957 9956 9955 9954 9953 9953 9952 9952 9951 9950 9950 9950 9949 9949 9948 9948 9948 9948 9948 9948 9948 9948 9948 9949 9949 9949 9950 9950 9951 9952
10060 10057 10053 10050 10047 10043 10040 10037 10034 10031 10028 10026 10023 10020 10018 10015 10013 10011 10008 10007 10005 10003 10000 9998 9997 9995 9993 9992 9989 9987 9985 9983 9982 9980 9979 9977 9975 9974 9973 9972 9970 9968 9967 9966 9965 9963 9962 9962 9960 9959 9958 9957 9957 9956 9955 9954 9953 9953 9952 9951 9950 9950 9949 9948 9948 9947 9947 9947 9946 9945 9945 9945 9945 9945 9945 9945 9945 9945 9945 9945 9945 9945 9946 9947 9947 9948
10055 10052 10048 10045 10042 10039 10036 10033 10030 10027 10024 10022 10019 10017 10014 10012 10010 10007 10005 10003 10001 9999 9997 9995 9993 9992 9990 9989 9987 9984 9982 9980 9978 9977 9976 9975 9973 9971 9970 9969 9967 9966 9965 9963 9962 9960 9959 9958 9958 9957 9955 9955 9953 9953 9952 9951 9950 9950 9949 9948 9947 9947 9946 9945 9945 9944 9944 9943 9943 9942 9942 9942 9942 9942 9941 9941 9941 9942 9942 9942 9942 9942 9943 9943 9944 9945
10050 10047 10044 10041 10038 10035 10032 10029 10026 10023 10020 10018 10015 10013 10011 10008 10007 10005 10002 10000 9998 9996 9994 9992 9990 9988 9987 9985 9983 9982 9980 9977 9976 9974 9973 9972 9970 9968 9967 9966 9965 9963 9962 9960 9959 9958 9957 9955 9955 9954 9953 9952 9951 9950 9949 9948 9948 9947 9946 9945 9945 9943 9943 9942 9942 9942 9941 9940 9940 9940 9939 9938 9938 9938 9938 9938 9938 9938 9938 9938 9938 9939 9939 9940 9940 9942
10045 10042 10040 10037 10033 10031 10028 10025 10022 10020 10017 10014 10012 10010 10007 10005 10003 10002 10000 9997 9995 9993 9991 9989 9987 9985 9983 9981 9980 9978 9977 9975 9973 9972 9970 9969 9967 9965 9964 9963 9962 9960 9959 9958 9957 9955 9954 9953 9952 9951 9950 9949 9948 9947 9947 9946 9945 9944 9943 9943 9942 9941 9940 9940 9939 9938 9938 9938 9937 9937 9937 9936 9935 9935 9935 9935 9935 9935 9935 9935 9935 9936 9937 9937 9937 9938
10041 10038 10035 10032 10030 10027 10024 10021 10018 10016 10013 10011 10008 10007 10004 10002 10000 9998 9997 9995 9993 9990 9988 9986 9984 9982 9980 9978 9976 9974 9973 9972 9970 9969 9968 9967 9965 9963 9962 9960 9958 9958 9957 9955 9954 9953 9952 9951 9950 9949 9948 9947 9946 9945 9944 9943 9942 9942 9941 9940 9940 9939 9938 9937 9937 9937 9936 9935 9935 9934 9933 9933 9933 9933 9932 9932 9932 9932 9932 9932 9933 9933 9933 9934 9935 9935
10037 10034 10031 10028 10026 10023 10020 10018 10015 10013 10010 10008 10005 10003 10001 9999 9997 9995 9993 9992 9990 9988 9986 9983 9982 9979 9977 9975 9973 9971 9970 9968 9967 9967 9965 9964 9963 9961 9959 9958 9956 9955 9954 9953 9952 9951 9950 9948 9947 9947 9945 9945 9943 9943 9942 9941 9940 9940 9938 9938 9937 9937 9936 9935 9935 9934 9933 9933 9932 9932 9932 9931 9930 9930 9930 9930 9930 9930 9930 9930 9930 9930 9930 9931 9932 9933
10032 10030 10027 10025 10022 10019 10017 10014 10012 10010 10007 10005 10003 10000 9998 9996 9994 9992 9990 9988 9987 9985 9983 9981 9979 9977 9975 9973 9971 9969 9967 9966 9965 9963 9962 9962 9960 9959 9957 9955 9954 9953 9952 9951 9950 9948 9948 9947 9945 9944 9943 9943 9942 9941 9940 9939 9938 9937 9937 9936 9935 9935 9934 9933 9933 9932 9932 9931 9930 9930 9929 9929 9928 9928 9928 9928 9928 9928 9928 9928 9928 9928 9928 9928 9929 9930
10028 10026 10023 10020 10018 10015 10013 10010 10008 10006 10004 10002 10000 9997 9995 9993 9991 9989 9987 9986 9984 9982 9980 9978 9976 9974 9972 9970 9968 9967 9965 9963 9962 9962 9960 9959 9958 9957 9955 9953 9952 9950 9950 9948 9947 9947 9945 9945 9943 9942 9942 9940 9940 9939 9938 9937 9936 9935 9935 9934 9933 9933 9932 9932 9931 9930 9930 9929 9928 9928 9927 9927 9927 9926 9926 9925 9925 9925 9925 9925 9926 9926 9926 9926 9927 9927
10025 10022 10019 10017 10014 10012 10009 10007 10005 10002 10000 9998 9997 9995 9992 9990 9988 9987 9985 9983 9981 9980 9978 9976 9974 9972 9970 9967 9966 9964 9963 9962 9960 9959 9958 9957 9955 9954 9953 9951 9950 9948 9947 9947 9945 9944 9943 9942 9942 9940 9940 9938 9938 9937 9936 9935 9934 9933 9933 9932 9932 9931 9930 9930 9929 9928 9928 9927 9927 9927 9926 9925 9925 9924 9923 9923 9923 9923 9923 9923 9923 9923 9924 9924 9925 9925
10020 10018 10015 10013 10010 10008 10006 10003 10001 9999 9997 9995 9993 9992 9990 9987 9985 9983 9982 9980 9978 9977 9975 9973 9972 9970 9967 9965 9963 9962 9960 9959 9958 9957 9956 9954 9953 9952 9950 9949 9948 9947 9945 9944 9943 9942 9942 9940 9940 9938 9938 9937 9936 9935 9934 9933 9932 9932 9932 9931 9930 9929 9929 9928 9928 9927 9927 9926 9925 9925 9924 9923 9923 9923 9922 9922 9922 9921 9921 9920 9921 9921 9922 9923 9923 9923
10017 10014 10012 10010 10007 10005 10002 10000 9998 9995 9993 9992 9990 9988 9986 9985 9983 9981 9979 9978 9976 9975 9973 9972 9970 9968 9965 9963 9961 9959 9958 9957 9956 9955 9953 9952 9951 9950 9948 9947 9946 9945 9943 9942 9942 9940 9940 9939 9938 9937 9936 9935 9934 9933 9932 9932 9931 9930 9930 9929 9928 9928 9927 9927 9926 9925 9925 9924 9924 9923 9923 9922 9922 9921 9920 9920 9920 9920 9919 9919 9919 9919 9920 9921 9922 9922
10013 10011 10008 10006 10003 10002 9999 9997 9995 9993 9990 9989 9987 9985 9983 9982 9980 9978 9977 9975 9973 9972 9971 9969 9968 9966 9963 9962 9960 9958 9956 9955 9953 9953 9952 9950 9949 9948 9946 9945 9944 9943 9942 9940 9940 9938 9938 9937 9937 9935 9935 9933 9933 9932 9931 9930 9930 9929 9928 9928 9927 9927 9926 9925 9925 9925 9924 9923 9922 9922 9922 9921 9920 9920 9919 9918 9918 9918 9918 9918 9918 9918 9918 9919 9920 9921
10010 10008 10005 10003 10001 9998 9997 9994 9992 9990 9988 9986 9985 9983 9981 9979 9977 9976 9974 9973 9971 9970 9968 9967 9965 9963 9962 9960 9958 9956 9955 9953 9952 9951 9950 9948 9947 9945 9944 9943 9942 9941 9940 9939 9938 9937 9936 9935 9935 9934 9933 9932 9932 9931 9930 9929 9928 9928 9927 9927 9927 9926 9925 9924 9923 9923 9923 9922 9922 9921 9920 9920 9919 9918 9918 9917 9917 9917 9917 9917 9917 9917 9917 9917 9918 9919
10007 10005 10002 10000 9998 9996 9993 9992 9990 9988 9986 9984 9982 9980 9978 9977 9975 9973 9972 9970 9968 9967 9966 9964 9963 9962 9960 9958 9956 9954 9953 9952 9950 9949 9948 9947 9945 9943 9942 9941 9940 9939 9938 9937 9937 9935 9935 9934 9933 9933 9932 9931 9930 9930 9928 9928 9927 9927 9927 9926 9925 9925 9925 9923 9923 9922 9922 9921 9920 9920 9920 9919 9918 9918 9917 9917 9916 9916 9915 9915 9915 9916 9916 9917 9917 9918
10004 10002 10000 9997 9995 9993 9991 9989 9987 9985 9983 9982 9980 9978 9976 9975 9973 9971 9970 9968 9967 9965 9963 9962 9960 9959 9957 9955 9954 9952 9951 9950 9948 9947 9947 9945 9943 9942 9941 9940 9938 9937 9937 9936 9935 9934 9933 9933 9932 9932 9931 9930 9930 9928 9928 9927 9927 9926 9925 9925 9925 9924 9923 9923 9922 9922 9921 9920 9920 9919 9919 9918 9918 9917 9917 9916 9915 9915 9915 9915 9915 9915 9915 9916 9917 9917
10000 9998 9997 9995 9993 9990 9988 9987 9985 9983 9981 9979 9977 9975 9974 9972 9970 9969 9967 9966 9964 9963 9961 9960 9958 9957 9955 9953 9952 9950 9949 9948 9947 9946 9945 9943 9942 9940 9939 9938 9937 9936 9935 9934 9933 9933 9932 9932 9931 9930 9930 9929 9928 9928 9927 9926 9925 9925 9925 9924 9923 9923 9922 9922 9922 9921 9920 9920 9919 9918 9918 9918 9918 9917 9916 9915 9915 9915 9915 9915 9915 9915 9915 9915 9916 9917
9997 9995 9993 9992 9990 9988 9986 9984 9982 9981 9979 9977 9975 9973 9972 9970 9968 9967 9965 9964 9962 9961 9959 9958 9957 9955 9953 9951 9950 9948 9947 9945 9945 9944 9943 9942 9940 9939 9938 9937 9935 9935 9933 9933 9932 9932 9931 9930 9930 9929 9929 9928 9928 9927 9926 9925 9925 9925 9924 9923 9923 9922 9922 9921 9921 9920 9920 9920 9919 9918 9918 9918 9917 9917 9916 9915 9915 9914 9914 9914 9914 9915 9915 9915 9916 9917
9994 9992 9990 9988 9987 9985 9983 9982 9980 9978 9977 9975 9973 9971 9969 9967 9966 9964 9963 9962 9960 9959 9958 9956 9955 9953 9952 9950 9948 9946 9945 9943 9943 9942 9941 9940 9938 9937 9936 9935 9934 9933 9932 9932 9931 9930 9930 9929 9928 9928 9928 9927 9927 9926 9925 9925 9924 9923 9923 9923 9922 9922 9921 9920 9920 9920 9920 9919 9918 9918 9918 9918 9917 9917 9916 9915 9915 9914 9914 9914 9914 9915 9915 9915 9916 9917
9991 9989 9987 9985 9983 9982 9980 9978 9977 9975 9973 9972 9970 9968 9967 9965 9963 9962 9960 9959 9958 9957 9955 9954 9953 9952 9950 9948 9947 9945 9943 9942 9941 9940 9939 9938 9937 9936 9935 9933 9933 9932 9931 9930 9930 9929 9928 9928 9928 9927 9927 9927 9926 9925 9925 9924 9923 9923 9923 9922 9922 9922 9921 9920 9920 9920 9919 9918 9918 9918 9918 9918 9918 9918 9917 9916 9915 9915 9915 9915 9915 9915 9915 9916 9917 9917
9988 9986 9984 9982 9980 9978 9977 9975 9973 9972 9970 9969 9967 9966 9964 9963 9961 9960 9958 9957 9955 9954 9953 9952 9951 9950 9948 9947 9945 9943 9942 9940 9939 9938 9938 9937 9936 9935 9933 9932 9932 9931 9930 9929 9928 9928 9928 9927 9927 9927 9926 9926 9925 9925 9924 9923 9923 9923 9922 9922 9922 9921 9921 9920 9920 9919 9919 9918 9918 9918 9918 9918 9918 9918 9918 9917 9916 9915 9915 9915 9915 9915 9916 9917 9917 9918
9986 9983 9982 9980 9978 9976 9974 9972 9971 9969 9967 9966 9964 9963 9962 9960 9958 9957 9956 9955 9953 9952 9951 9950 9949 9948 9947 9945 9943 9942 9940 9939 9938 9937 9937 9935 9935 9933 9932 9932 9930 9930 9928 9928 9927 9927 9927 9927 9926 9926 9925 9925 9925 9924 9923 9923 9923 9922 9922 9922 9922 9921 9921 9920 9920 9920 9919 9919 9918 9918 9918 9918 9918 9918 9918 9918 9917 9916 9916 9916 9916 9917 9917 9917 9918 9918